Weather History for Cucuta, Colombia

Change the Weather History Date:

Wednesday, May 22, 2013

  Actual Average (SVSA) Record (SVSA)
Temperature  
Mean Temperature 82 °F -  
Max Temperature 90 °F 91 °F 95 °F (2001)
Min Temperature 73 °F 73 °F 60 °F (2006)
Cooling Degree Days 16    
Growing Degree Days 32 (Base 50)    
Moisture  
Dew Point 72 °F    
Average Humidity 76    
Maximum Humidity 94    
Minimum Humidity 49    
Precipitation  
Precipitation 0.00 in 0.07 in - ()
Sea Level Pressure  
Sea Level Pressure 29.88 in    
Wind  
Wind Speed 2 mph ()    
Max Wind Speed 9 mph    
Max Gust Speed -    
Visibility 6.5 miles    
Events Fog , Thunderstorm    
Averages and records for this station are not official NWS values.
T = Trace of Precipitation, MM = Missing Value Source: Averaged Metar Reports

Daily Weather History Graph

Daily Weather History Graph

Search for Another Location

Airport:

Trip Planner

Search our weather history database for the weather conditions in past years. The results will help you decide how hot, cold, wet, or windy it might be!

Date:

Astronomy

May. 22, 2013 Rise Set
Actual Time 5:31 AM COT 6:02 PM COT
Civil Twilight 5:08 AM COT 6:24 PM COT
Nautical Twilight 4:42 AM COT 6:50 PM COT
Astronomical Twilight 4:16 AM COT 7:17 PM COT
Moon 3:45 PM COT (5/22) 3:02 AM COT (5/22)
Length of Visible Light 13h 15m
Length of Day
12h 31m
Waxing Gibbous, 91% of the Moon is Illuminated
May 22
Waxing Gibbous
May 24
Full
May 31
Last Quarter
Jun 8
New
Jun 16
First Quarter

Hourly Weather History & Observations

Time (COT) Temp. Heat Index Dew Point Humidity Pressure Visibility Wind Dir Wind Speed Gust Speed Precip Events Conditions
5:00 AM - - - N/A% 29.88 in 6.2 mi Calm Calm - N/A   Scattered Clouds
5:30 AM - - - N/A% 29.88 in 6.2 mi Calm Calm - N/A   Scattered Clouds
6:00 AM 73.4 °F - 71.6 °F 94% 29.88 in 6.2 mi Calm Calm - N/A   Scattered Clouds
7:00 AM 74 °F - 71 °F 89% 29.80 in 12 mi Calm Calm - -   Scattered Clouds
7:00 AM 73.4 °F - 71.6 °F 94% 29.92 in 6.2 mi Calm Calm - N/A   Scattered Clouds
8:00 AM 78.8 °F - 71.6 °F 78% 29.94 in 6.2 mi Calm Calm - N/A   Scattered Clouds
9:00 AM 82.4 °F 87.2 °F 71.6 °F 70% 29.96 in 6.2 mi Calm Calm - N/A   Scattered Clouds
10:00 AM 85 °F - 71 °F 55% 29.82 in 12 mi North 4.5 mph - -   Scattered Clouds
10:00 AM 84.2 °F 89.6 °F 71.6 °F 66% 29.94 in 6.2 mi North 4.6 mph - N/A   Scattered Clouds
11:00 AM 87.8 °F 92.6 °F 69.8 °F 55% 29.92 in 6.2 mi North 4.6 mph - N/A   Scattered Clouds
12:00 PM 87.8 °F 92.6 °F 69.8 °F 55% 29.90 in 6.2 mi North 4.6 mph - N/A   Scattered Clouds
1:00 PM 90 °F - 73 °F 49% 29.75 in 12 mi North 8.9 mph - -   Partly Cloudy
1:00 PM 89.6 °F 98.2 °F 73.4 °F 59% 29.87 in 6.2 mi North 9.2 mph - N/A   Scattered Clouds
2:00 PM 89.6 °F 98.2 °F 73.4 °F 59% 29.84 in 6.2 mi North 6.9 mph - N/A   Scattered Clouds
3:00 PM 89.6 °F 96.2 °F 71.6 °F 55% 29.81 in 6.2 mi North 8.1 mph - N/A   Scattered Clouds
4:00 PM 84 °F - 73 °F 63% 29.71 in 4 mi South 4.5 mph - - Thunderstorm Thunderstorm
4:00 PM 84.2 °F 90.9 °F 73.4 °F 70% 29.82 in 6.2 mi South 4.6 mph - N/A Thunderstorm Thunderstorm
5:00 PM 77.0 °F - 71.6 °F 83% 29.84 in 5.0 mi NE 6.9 mph - N/A Thunderstorm Thunderstorm
6:00 PM 77.0 °F - 73.4 °F 89% 29.90 in 6.2 mi North 5.8 mph - N/A   Mostly Cloudy
7:00 PM 75 °F - 73 °F 90% 29.83 in 7 mi NW 4.5 mph - -   Overcast
7:00 PM 75.2 °F - 73.4 °F 94% 29.93 in 6.2 mi NW 4.6 mph - N/A   Mostly Cloudy
8:00 PM 73.4 °F - 71.6 °F 94% 29.97 in 4.3 mi Variable 2.3 mph - N/A   Light Drizzle
9:00 PM 75.2 °F - 73.4 °F 94% 29.98 in 4.3 mi Calm Calm - N/A Fog Light Drizzle
10:00 PM 75.2 °F - 73.4 °F 94% 29.99 in 4.3 mi Calm Calm - N/A   Light Drizzle
11:00 PM 75.2 °F - 73.4 °F 94% 29.99 in 4.3 mi Variable 2.3 mph - N/A Fog Fog